Theta_e
326 324 322 323 322 321 322 322 321 319 316 314 312 311 311 311 311 311 310 309 309 308 308 308 307 308 308 308 309 309 309 308 309 308 308 307 307 307 307 307 306 306 307
323 322 322 322 322 322 322 320 319 315 312 312 311 310 310 310 309 309 308 307 307 306 306 306 305 306 307 307 306 307 306 306 306 306 305 305 305 305 305 306 307 307 307
323 322 322 322 323 322 320 318 314 312 310 309 307 307 309 309 307 306 305 305 305 304 304 303 303 303 305 306 305 305 304 303 304 304 304 304 304 304 304 305 306 306 306
323 322 322 322 322 320 318 315 313 310 308 307 306 309 308 307 306 304 304 304 303 303 302 302 303 304 305 305 304 304 303 304 303 303 303 303 303 303 303 304 305 305 305
322 322 323 320 320 319 315 313 311 308 307 306 306 308 307 306 304 303 303 302 302 301 301 301 302 304 303 303 304 304 304 303 303 303 303 303 303 303 303 304 304 304 304
323 323 320 320 318 315 313 311 310 307 306 306 308 308 307 304 301 300 300 301 301 302 302 303 303 303 303 303 301 301 302 303 303 302 302 302 302 303 303 303 304 303 304
323 322 320 319 316 313 312 310 306 305 305 308 309 308 306 303 300 299 298 301 302 303 303 303 303 303 302 301 301 301 302 301 300 301 303 303 302 303 303 303 303 303 304
323 321 319 317 314 312 310 305 305 305 307 307 307 306 305 301 299 298 298 301 302 302 302 302 301 300 298 297 300 300 300 300 301 300 301 301 302 302 303 303 303 303 302
323 321 318 315 311 310 305 305 305 307 307 305 305 304 303 302 299 298 300 301 302 302 302 299 299 299 296 295 298 299 299 299 299 298 299 299 300 300 299 301 302 302 303
322 320 316 312 311 306 306 306 306 306 306 305 304 302 300 301 298 299 300 301 302 302 302 300 297 296 295 295 298 299 299 298 299 300 300 301 301 302 301 303 303 302 303
320 316 310 313 308 305 306 306 303 303 305 304 303 302 301 300 299 299 299 302 301 302 301 300 299 296 295 295 296 297 296 296 298 299 299 299 300 300 300 301 303 303 303
313 310 310 307 306 307 306 303 303 303 303 302 301 301 300 300 299 299 299 299 298 301 301 301 299 296 296 295 296 295 295 296 296 296 297 298 298 299 299 301 302 303 303
309 308 306 306 307 306 303 301 300 301 300 299 300 300 300 300 300 299 298 296 298 299 300 299 296 297 297 297 295 295 295 296 296 296 295 295 297 298 299 300 301 303 302
307 306 306 305 304 302 301 300 300 301 301 299 299 300 300 300 300 300 299 299 299 300 299 299 297 298 297 297 297 297 296 295 294 295 295 294 296 298 299 300 301 301 301
307 306 306 305 303 300 300 301 301 302 302 302 300 300 300 300 300 299 297 299 299 299 299 300 300 299 298 298 298 297 297 295 294 294 294 294 294 297 299 300 300 299 299
306 305 304 304 304 300 301 301 301 302 301 301 301 301 299 299 298 297 295 297 298 298 300 300 300 299 298 298 298 298 297 296 295 293 293 293 294 296 297 298 298 298 298
305 305 303 304 304 302 302 303 303 302 302 303 302 301 300 300 297 296 297 298 298 298 300 301 300 299 299 299 299 298 298 297 296 295 294 293 293 294 296 298 298 298 298
306 305 303 303 303 303 303 303 304 304 304 304 303 302 302 301 300 299 299 298 300 299 300 300 300 300 299 299 299 299 299 299 298 297 296 294 293 294 294 296 297 297 297
305 304 304 303 303 304 303 304 304 305 305 305 305 303 302 302 301 300 299 299 300 300 300 300 300 300 300 299 299 299 299 299 298 298 297 296 295 294 295 296 296 296 296
305 305 304 304 304 304 304 305 305 304 305 305 304 304 302 300 300 300 300 300 300 300 300 300 300 300 300 301 300 300 300 300 300 299 298 297 296 295 296 296 296 296 296
307 304 304 305 304 304 304 304 304 304 304 303 303 303 302 301 301 300 300 300 300 300 300 300 300 300 300 301 301 301 300 300 300 300 299 298 297 297 296 297 297 297 296
307 306 305 305 305 305 304 304 304 304 303 302 303 303 301 300 301 301 301 300 300 300 300 300 300 300 300 300 300 301 301 301 301 300 300 299 297 297 296 297 298 298 297
306 306 306 305 305 304 304 304 304 303 303 302 303 303 302 302 302 302 302 301 301 300 300 300 300 301 301 301 301 301 301 301 301 301 300 299 298 297 296 297 295 296 297
306 305 305 305 304 304 303 304 304 304 303 303 303 303 303 303 303 303 303 302 302 302 301 300 301 301 301 301 301 301 301 301 301 300 300 299 298 297 296 296 294 295 296
306 305 305 304 304 304 304 305 305 304 304 303 303 303 303 303 303 303 303 303 303 302 302 302 302 301 301 301 300 301 301 300 299 298 298 298 297 296 295 294 294 294 295
305 305 305 305 305 305 305 305 304 304 304 304 304 304 304 303 303 303 303 303 303 303 303 303 303 302 302 302 302 303 302 303 301 300 297 297 296 294 293 295 293 294 294
Wind_Speed
24 24 23 22 21 21 16 15 14 12 10 9 7 5 4 4 5 6 6 5 5 6 7 8 9 10 11 11 11 10 11 12 14 19 19 20 22 22 23 22 21 21 20
22 22 23 22 21 20 17 16 15 14 11 7 7 6 6 6 6 7 6 6 6 7 8 9 10 11 11 10 11 11 11 13 16 19 20 21 19 20 21 22 21 19 20
24 22 21 21 20 18 18 18 16 13 10 7 5 5 7 6 5 6 6 6 5 6 7 9 10 10 10 10 11 12 14 17 17 18 19 19 20 19 21 20 19 20 20
26 25 24 23 22 22 22 20 16 12 10 7 4 6 6 6 6 6 5 5 5 6 7 8 9 8 8 9 10 12 15 16 15 16 17 17 17 18 19 21 23 21 23
28 26 24 28 26 24 22 20 16 12 9 7 7 7 6 6 5 5 5 5 6 7 8 7 7 7 8 9 10 13 13 14 15 15 17 17 18 21 20 22 21 22 22
29 27 28 28 25 26 25 21 16 11 10 9 9 8 7 6 5 6 6 6 7 7 7 8 7 8 12 13 14 13 11 11 14 17 17 18 19 19 20 22 22 24 16
31 29 31 35 31 28 24 19 17 13 12 10 9 8 7 7 4 6 6 5 5 6 7 8 8 9 12 13 15 16 14 14 10 11 14 16 19 18 18 19 21 22 22
31 30 29 28 26 28 25 21 16 14 12 11 10 9 7 6 4 5 4 2 3 5 6 8 8 9 13 15 14 14 14 13 11 11 12 15 14 13 14 17 19 21 20
31 30 30 28 33 30 27 22 16 13 13 11 11 9 7 6 3 4 5 3 4 4 5 5 7 10 15 16 13 13 14 13 15 18 18 16 13 10 14 14 18 20 20
31 31 31 35 35 31 22 20 16 14 13 12 11 8 7 6 5 4 4 3 4 3 4 3 8 13 16 16 12 13 14 15 16 17 15 14 13 11 14 10 12 17 19
29 28 32 36 33 29 22 18 17 14 14 13 10 8 7 6 5 5 6 4 3 4 5 6 7 13 15 14 13 12 12 14 15 14 14 14 14 14 14 14 10 12 16
29 32 36 35 27 22 20 18 16 16 15 13 10 8 6 5 6 5 4 3 5 5 6 6 6 10 12 13 12 12 14 14 15 15 15 14 14 15 16 16 12 10 10
29 29 31 26 22 22 22 20 17 15 14 12 11 9 8 6 6 6 2 4 6 5 5 7 5 9 12 11 13 13 13 14 15 15 15 15 14 14 15 14 11 8 8
32 23 25 26 22 20 20 20 18 15 13 12 11 10 8 7 7 5 1 3 5 6 9 7 5 8 10 10 11 12 12 13 14 14 14 15 13 13 13 13 12 12 12
36 33 22 22 26 23 20 18 16 14 12 12 10 9 9 8 8 7 2 3 4 6 7 7 6 7 8 9 10 12 12 13 14 14 14 15 14 13 12 10 12 13 14
34 27 26 25 23 22 20 15 16 12 12 10 9 9 9 8 9 6 4 4 6 5 4 7 6 6 7 7 9 10 12 14 14 13 13 13 13 11 12 10 11 12 14
30 27 27 23 23 22 20 17 15 12 12 10 11 13 12 9 10 8 5 6 6 3 4 5 5 5 5 5 6 8 10 12 12 13 13 13 12 11 11 10 10 12 14
30 36 32 23 23 22 20 17 14 13 12 9 12 12 11 14 14 10 8 7 5 5 6 5 5 4 4 4 5 6 8 10 12 12 12 12 13 12 11 10 11 12 14
29 29 25 23 21 21 20 16 15 12 11 10 8 8 11 12 11 11 10 9 7 7 7 7 7 6 6 6 7 7 8 8 9 9 10 10 11 11 11 11 12 12 13
28 32 26 22 21 20 18 17 14 11 10 10 9 8 8 10 9 9 10 9 10 10 9 10 9 9 9 9 9 10 10 9 9 9 8 8 8 8 10 12 12 14 14
23 26 28 23 21 20 18 16 14 11 10 10 11 10 12 11 9 8 9 10 11 11 12 12 11 11 12 13 13 13 13 13 12 12 11 9 8 8 8 10 13 13 14
22 23 26 25 22 20 19 15 12 11 11 11 11 9 13 12 11 11 12 13 13 13 13 13 14 15 15 16 16 17 17 17 17 16 14 13 11 9 9 11 16 16 15
21 23 24 23 21 19 17 15 12 12 11 12 11 9 10 12 12 13 13 14 14 15 15 15 16 17 17 17 17 18 20 21 20 18 18 16 13 11 8 12 12 16 16
22 25 24 22 20 20 18 16 14 14 14 13 12 11 11 12 12 13 13 13 13 14 14 16 17 18 19 20 20 20 21 22 19 18 19 19 17 13 11 11 10 14 15
24 24 22 22 22 20 18 16 16 15 14 15 14 13 13 13 13 13 14 14 15 16 17 17 18 20 22 24 25 25 25 28 26 21 17 16 17 14 11 11 10 13 14
23 22 20 19 20 21 18 16 15 14 14 14 14 14 14 13 13 14 15 15 16 16 17 18 19 20 22 21 21 20 18 18 17 15 13 13 14 13 10 12 11 12 14
Wind_Direction
183 181 182 179 176 176 170 163 156 147 136 133 119 94 71 67 61 63 60 33 20 12 7 359 357 355 349 345 339 335 328 330 316 316 314 321 324 327 329 330 330 327 322
179 178 172 165 165 165 163 158 153 148 140 127 110 96 86 77 65 59 50 29 15 9 5 0 355 348 341 341 338 338 335 331 324 317 320 321 324 326 326 328 329 327 326
173 171 165 162 160 159 159 156 155 150 138 128 122 113 105 90 74 57 50 42 36 17 358 350 340 333 329 339 340 337 333 329 329 325 323 328 329 334 333 332 333 330 330
170 170 166 164 163 166 162 160 157 155 141 144 131 116 107 95 74 59 46 30 16 354 352 347 348 343 336 343 345 341 335 328 329 325 327 331 333 341 338 339 336 334 330
167 167 167 173 170 166 159 161 159 152 145 145 140 133 129 105 78 64 38 15 4 351 353 349 349 355 348 341 334 329 326 323 326 327 329 331 339 338 339 337 332 328 329
163 165 169 169 165 163 162 157 157 154 144 153 145 149 132 105 73 36 35 21 15 20 15 4 355 349 344 341 336 330 313 302 308 316 324 334 334 328 335 334 328 334 329
167 168 170 173 166 165 159 158 156 158 155 148 155 143 135 108 67 39 38 34 42 22 9 2 2 355 353 346 343 346 343 336 331 304 312 325 325 328 328 329 335 333 329
172 171 166 160 159 161 161 159 162 160 149 152 142 143 133 120 90 31 43 54 44 22 25 9 11 12 2 354 342 339 340 340 341 335 322 317 317 319 320 323 318 327 332
173 168 165 164 159 162 164 159 161 153 152 148 146 143 136 124 104 70 70 70 37 46 26 31 20 6 356 353 349 346 343 345 342 336 333 331 329 331 329 322 342 336 347
172 165 163 163 166 161 159 155 154 152 155 156 148 137 139 126 119 87 76 75 60 39 14 17 13 12 9 6 3 356 351 348 340 339 342 344 344 345 355 343 333 339 346
164 161 158 165 162 162 155 150 150 150 155 153 146 147 143 136 114 104 95 71 36 0 2 357 359 10 11 10 14 5 352 344 339 338 340 347 351 350 350 348 338 332 346
154 152 156 157 152 151 148 148 147 146 151 151 158 157 163 162 139 125 100 55 358 330 340 341 344 1 8 3 8 359 356 354 349 347 344 340 345 348 343 341 340 335 2
143 141 144 147 148 151 150 147 141 148 150 156 162 166 172 170 165 152 126 3 357 2 350 333 337 353 358 359 356 356 359 355 353 352 351 347 342 338 337 345 351 341 357
135 135 143 148 149 150 151 153 154 157 153 154 158 169 170 172 178 179 224 341 6 13 2 350 338 350 357 357 357 356 356 356 354 352 351 350 347 350 354 352 350 358 2
149 156 159 160 156 153 159 165 170 171 171 170 161 170 175 178 184 188 217 327 349 344 351 349 351 354 356 0 4 6 7 4 1 358 355 355 355 357 2 9 9 5 8
156 163 161 159 160 162 168 175 180 183 190 189 188 190 193 185 192 213 252 315 323 325 327 347 350 355 357 1 8 11 12 9 5 2 0 359 357 354 355 358 2 4 3
156 159 162 162 167 166 175 180 181 201 214 215 220 222 211 206 215 228 253 297 301 293 288 318 331 338 346 350 358 3 3 4 1 2 2 0 357 353 347 348 350 353 353
165 171 170 171 170 175 178 184 186 194 202 209 227 231 229 226 226 230 254 270 254 245 266 281 301 304 307 313 326 337 346 354 2 4 4 4 1 356 351 348 349 346 343
166 168 169 175 177 178 183 185 189 193 207 222 221 230 229 220 219 227 235 238 249 254 255 261 268 282 289 286 293 300 306 318 329 346 358 1 1 1 356 345 338 336 332
170 177 173 176 177 181 183 186 191 198 211 218 215 205 184 185 202 208 215 227 239 250 258 260 266 268 273 276 278 281 289 295 302 311 324 336 346 351 352 348 339 333 332
168 175 179 178 182 184 187 193 199 202 198 205 205 203 200 204 212 218 221 228 241 252 257 261 265 267 268 269 271 275 280 285 286 287 290 294 302 317 333 343 341 332 325
169 176 185 187 187 191 194 199 205 202 202 205 208 214 211 217 230 237 241 245 250 255 260 262 262 265 267 268 271 273 277 279 280 278 279 282 287 298 311 329 338 334 325
174 180 184 187 189 195 198 203 204 204 210 211 216 219 221 229 242 249 253 256 257 257 259 259 263 268 269 270 268 266 268 272 274 272 269 268 268 272 284 303 318 328 324
180 183 182 182 188 196 202 205 210 214 216 222 228 235 241 243 249 254 260 261 259 256 256 256 259 265 271 272 272 273 273 275 276 273 268 264 261 254 270 271 291 307 310
179 181 187 192 195 199 200 207 214 219 220 228 235 243 250 249 252 254 258 262 262 260 259 258 260 265 270 276 279 280 279 282 286 277 263 255 252 252 257 271 292 303 306
178 182 188 196 197 197 203 209 215 220 221 226 234 241 249 254 257 259 260 263 266 268 267 268 268 271 274 276 279 286 294 299 297 288 256 244 241 229 232 284 289 296 302